Flag for Liberia Weather past 2 weeks in Gbarnga, Liberia

Now
72 °F

Passing clouds.


Feels Like: 67 °F
Forecast: 67 / 79 °F
Wind: 3 mph from Northeast

Location: Roberts Field

Current Time: Jul 31, 2015 at 5:34:13 AM

Latest Report: Jul 31, 2015 at 4:30 AM


Visibility: N/A

Pressure: 29.98 "Hg

Humidity: 94%

Dew point: 70 °F

Location of GbarngaLocation

Historic Weather in Gbarnga — Graph

°F

Gbarnga temperature yesterday

Maximum temperature yesterday: 82 °F (at 3:00 PM)
Minimum temperature yesterday: 72 °F (at 12:00 AM)
Average temperature yesterday: 75 °F

Past Weeks' High & Low Weather Summary

 TemperatureHumidityPressure
High84 °F (Jul 18, 10:30 AM)100% (Jul 16, 6:00 PM)30.04 "Hg (Jul 16, 6:00 PM)
Low70 °F (Jul 29, 6:30 AM)62% (Jul 29, 12:30 PM)29.89 "Hg (Jul 16, 3:30 PM)
Average77 °F88%29.97 "Hg
* Reported Jul 16 4:00 AM — Jul 31 4:30 AM, Gbarnga, Weather by CustomWeather, © 2015

Note: Actual official high and low records may vary slightly from our data, if they occured in-between our weather recording intervals... More about our weather records

Advertising

Gbarnga weather history for previous 24 hours

 ConditionsComfort  
Time TempWeatherWind HumidityBarometerVisibility
4:30 AM
Fri, Jul 31
72 °FPassing clouds.3 mph94%29.98 "HgN/A
4:00 AM72 °FPassing clouds.No wind94%29.95 "HgN/A
2:00 AM73 °FPassing clouds.No wind94%29.98 "HgN/A
1:30 AM73 °FPassing clouds.No wind94%29.98 "HgN/A
1:00 AM73 °FPassing clouds.No wind94%30.01 "HgN/A
12:30 AM73 °FPassing clouds.No wind94%30.01 "HgN/A
12:00 AM73 °FPassing clouds.No wind94%30.01 "HgN/A
11:30 PM
Thu, Jul 30
73 °FPassing clouds.No wind94%30.01 "HgN/A
8:00 PM75 °FPassing clouds.6 mph89%29.98 "HgN/A
7:30 PM77 °FBroken clouds.No wind83%29.98 "HgN/A
7:00 PM77 °FScattered clouds.No wind79%29.98 "HgN/A
3:00 PM82 °FPartly sunny.9 mph66%29.98 "HgN/A
2:30 PM81 °FPartly sunny.8 mph70%29.98 "HgN/A
2:00 PM81 °FPartly sunny.10 mph74%30.01 "HgN/A
1:30 PM81 °FPartly sunny.8 mph74%30.01 "HgN/A
11:00 AM81 °FPartly sunny.13 mph79%30.04 "HgN/A
10:30 AM81 °FPartly sunny.9 mph74%30.01 "HgN/A
10:00 AM81 °FPartly sunny.7 mph79%30.04 "HgN/A
9:00 AM81 °FPartly sunny.10 mph79%30.04 "HgN/A
8:30 AM79 °FPartly sunny.10 mph79%30.04 "HgN/A
7:30 AM73 °FPassing clouds.No wind94%30.01 "HgN/A
6:30 AM73 °FPassing clouds.No wind94%30.01 "HgN/A
6:00 AM72 °FPassing clouds.No wind94%30.01 "HgN/A
5:30 AM72 °FRain. Passing clouds.No wind94%29.98 "HgN/A
5:00 AM72 °FMild.No wind94%29.98 "HgN/A
Weather by CustomWeather, © 2015

See weather overviewHow to use our weather pages